Regional Weather Roundup
Issued by NWS Grand Forks, ND

Home | Current Version | Previous Version | Text Only | Print | Product List | Glossary Off
Versions: 1 2 3 4 5 6 7 8 9 10 11 12 13 14 15 16 17 18 19 20 21 22 23 24 25 26 27 28 29 30 31 32 33 34 35 36 37 38 39 40 41 42 43 44 45 46 47 48 49 50

000
ASUS43 KFGF 180910
RWRFGF
PRAIRIE TO PINES  WEATHER ROUNDUP
NATIONAL WEATHER SERVICE EASTERN NORTH DAKOTA/GRAND FORKS ND
400 AM CDT FRI AUG 18 2017

 **SATELLITE DATA USED TO AUGMENT SKY COVER AT AUTOMATED STATIONS**
 *****  WEATHER ACROSS EASTERN NORTH DAKOTA  *****

CITY           SKY/WX    TMP DP  RH WIND       PRES   REMARKS
GRAND FORKS    FAIR      61  60  97 W6        29.83S
GRAND FRKS AFB NOT AVBL
DEVILS LAKE    FAIR      65  59  81 SW3       29.87S
FARGO          CLOUDY    62  59  90 SW5       29.86R
WAHPETON ARPT  FAIR      61  57  88 CALM      29.87S
$$

 ***** WEATHER ACROSS CENTRAL AND WESTERN NORTH DAKOTA  *****

CITY           SKY/WX    TMP DP  RH WIND       PRES   REMARKS
BISMARCK       FAIR      64  59  83 NW12      29.87S
MINOT          FAIR      61  58  90 NW7       29.87F
JAMESTOWN      RAIN      63  60  90 SE9       29.88F FOG
MINOT AFB      FAIR      59  57  93 NW8       29.87F
GARRISON         N/A     59  53  80 CALM      29.87F
WILLISTON      FAIR      60  56  86 CALM      29.96R
DICKINSON      FAIR      54  49  83 W5        29.94R
HETTINGER      FAIR      58  47  66 N7        29.96S
$$

 *****  OTHER AIRPORT OBSERVATIONS IN OUR AREA  *****

CITY           SKY/WX    TMP DP  RH WIND       PRES   REMARKS
WALHALLA       FAIR      55  55 100 S3        29.83R
GRAFTON AIRPOR FAIR      54  54 100 SW3       29.85S FOG
VALLEY CITY AR   N/A     64  57  77 SW8       29.88F
CANDO          PTSUNNY   61  61 100 CALM      29.88S
CAVALIER APRT  FAIR      55  54  94 CALM      29.83R
GWINNER        MOSUNNY   64  55  72 W16G23    29.91S
SHEYENNE NWR     N/A     63  61  94 W8        29.95S
ROLLA          PTSUNNY   63  59  88 W16       29.88S
 ***** THE ABOVE OBSERVATIONS ARE NON NWS ARE NOT QUALITY
       CONTROLLED AND MAY MIS-REPORT RAIN FOR SNOW...
$$

  *****  WEATHER ACROSS NORTHERN MINNESOTA  *****

CITY           SKY/WX    TMP DP  RH WIND       PRES   REMARKS
FLAG ISLAND    FAIR      63  54  72 CALM      29.81R
WARROAD        FAIR      55  52  88 CALM      29.84R
ROSEAU         FAIR      54  48  82 S3        29.84R HAZE
HALLOCK        FAIR      52  52 100 CALM      29.83R
THF RVR FALLS  FAIR      57  54  89 CALM      29.86S
BAUDETTE       FAIR      52  52 100 CALM      29.83R FOG
WASKISH        FAIR      57  55  94 CALM      29.84S
CROOKSTON      FAIR      55  54  94 S3        29.85S
STEPHEN NDAWN    N/A     55  54  94 CALM        N/A
GREENBUSH NDAW   N/A     54  52  94 S2          N/A
$$
  *****  WEATHER ACROSS CENTRAL AND WEST MINNESOTA  *****

CITY           SKY/WX    TMP DP  RH WIND       PRES   REMARKS
FOSSTON        FAIR      54  52  94 S5        29.87S
BEMIDJI        FAIR      51  51  97 CALM      29.86S
PARK RAPIDS    FAIR      56  53  90 CALM      29.87S
ELBOW LAKE     FAIR      61  59  95 CALM      29.87F
WADENA         MOCLDY    57  57 100 CALM      29.87S FOG
DETROIT LAKES  FAIR      61  59  94 CALM      29.89S
MOORHEAD       MOCLDY    59  57  94 CALM      29.88R
FERGUS FALLS   FAIR      61  61 100 CALM      29.87F
MORRIS MN      FAIR      61  61 100 CALM      29.86F
STAPLES        FAIR      55  55 100 CALM      29.87F
$$
  *****  WEATHER ELSEWHERE ACROSS MINNESOTA  *****

CITY           SKY/WX    TMP DP  RH WIND       PRES   REMARKS
DULUTH         CLOUDY    57  57 100 NW6       29.82R
INTRNTL FALLS  FOG       49  47  93 CALM      29.83R VSB 1/2
ELY            MOCLDY    57  57 100 W5        29.82R
CLOQUET        FAIR      55  54  94 W6        29.83S
WHEATON        FAIR      61  57  88 CALM      29.88S
BRAINERD       FAIR      55  55 100 CALM      29.87S FOG
HIBBING        FAIR      47  47 100 NW3       29.84R FOG
ALEXANDRIA     MOCLDY    61  60  97 W3        29.89F
SAINT CLOUD    FAIR      55  55 100 CALM      29.87S
MINNEAPOLIS    FAIR      61  57  87 CALM      29.86S
$$

  *****  WEATHER ACROSS SOUTH DAKOTA  *****

CITY           SKY/WX    TMP DP  RH WIND       PRES   REMARKS
SIOUX FALLS    LGT RAIN  64  63  96 SE10      29.88S
BROOKINGS      LGT RAIN  63  56  78 SW7       29.89R
WATERTOWN      MOCLDY    61  58  90 W7        29.89R
HURON          RAIN      62  59  90 CALM      29.91S FOG
SISSETON         N/A     60  59  96 CALM      29.85F
ABERDEEN       FAIR      63  58  83 SW10      29.83R
MITCHELL       MOCLDY    63  61  93 N5        29.94R
PIERRE         FAIR      61  58  90 S6        29.89R
MOBRIDGE       LGT RAIN  65  60  84 S5        29.86S
RAPID CITY     FAIR      61  45  55 NW6       30.00S
$$

  *****  SOME WEATHER IN NEARBY STATES *****

CITY           SKY/WX    TMP DP  RH WIND       PRES   REMARKS
GLASGOW MT     FAIR      59  45  59 E10       29.96S
GREAT FALLS MT FAIR      59  36  42 SW9       30.05S
CHEYENNE WY    FAIR      54  44  69 NW3       30.22S
SCOTTSBLUFF NE FAIR      54  49  83 NW6       30.10S
OMAHA NE       CLOUDY    69  61  75 NE5       29.94R
DES MOINES IA  FAIR      62  59  90 SW3       29.89F
DAVENPORT IA   FAIR      62  61  96 W8        29.88R
CHICAGO IL     FAIR      69  61  75 W12       29.78R
EAU CLAIRE WI  FAIR      60  58  92 NW5       29.81S
LA CROSSE WI   CLOUDY    69  61  75 N7        29.81F
$$

  *****  SOME NATIONAL WEATHER *****

CITY           SKY/WX    TMP DP  RH WIND       PRES   REMARKS
LA GUARDIA NY  CLOUDY    76  73  91 S8        29.89F
RALEIGH NC     FAIR      76  74  93 S5        29.92F
ATLANTA GA     FAIR      77  71  82 W8        30.00S
NEW ORLEANS LA FAIR      78  77  96 W3        30.02S
OKLAHOMA CITY  FAIR      73  71  93 CALM      30.01R
ALBUQUERQUE NM FAIR      72  39  30 NE3       30.16F
SALT LAKE CITY FAIR      66  45  46 SW7       30.11R
LOS ANGELES CA FAIR      65  63  93 W6        29.98F
BOISE ID       FAIR      63  39  41 SE5       30.05S
SEATTLE WA     FAIR      59  53  80 W3        30.16S
$$

*** WEATHER ACROSS MANITOBA...SASKATCHEWAN AND ONTARIO ***
                ***ONTARIO***

CITY           SKY/WX    TMP DP  RH WIND       PRES   REMARKS
GERALDTON      DRIZZLE   55  55 100 NE12      29.68F FOG
THUNDER BAY    CLOUDY    61  57  88 NW8       29.69R
SIOUX LOOKOUT  FOG       45  45 100 NE2       29.80S VSB 1
TORONTO        CLEAR     70  68  94 SE5       29.68S
BIG TROUT LK   LGT RAIN  63  59  88 SW12      29.75S
PICKLE LAKE    NOT AVBL
DRYDEN         PTCLDY    54  54 100 W2        29.80S FOG
KENORA         CLEAR     59  57  94 SW2       29.81S
$$
                *** MANITOBA***

CITY           SKY/WX    TMP DP  RH WIND       PRES   REMARKS
BRANDON        MOCLDY    52  50  93 NW8       29.84S
DAUPHIN        CLEAR     55  52  88 W9        29.82S
ISLAND LAKE    MOCLDY    63  57  82 SW9       29.74S
PILOT MOUND      N/A     61  52  72 SW7         N/A
THE PAS        CLOUDY    59  55  88 W2        29.76R
THOMPSON       PTCLDY    54  50  87 S2        29.68S
WINNIPEG       PTCLDY    59  50  72 SW6       29.79F
LYNN LAKE      CLOUDY    57  50  77 MISG      29.67S
CHURCHILL      PTCLDY    55  54  94 S6        29.61S
GILLAM         PTCLDY    57  52  82 S7        29.65F
$$
                ***SASKATCHEWAN***

CITY           SKY/WX    TMP DP  RH WIND       PRES   REMARKS
ESTEVAN        MOCLDY    52  52 100 SW7       29.93R
KINDERSLEY     PTCLDY    50  45  81 S2        29.95S
LLOYDMINSTER   CLEAR     52  48  87 SW7       29.91S
PRINCE ALBERT  CLEAR     50  48  93 W5        29.87F
REGINA         NOT AVBL
YORKTON        CLEAR     54  50  87 W5        29.87S
N. BATTLEFORD  CLEAR     48  46  93 CALM      29.93S
LA RONGE       CLEAR     59  54  82 W3        29.79S
SASKATOON      CLEAR     52  48  87 SW8       29.92S
SWIFT CURRENT  CLEAR     52  43  71 SW9       29.97S
$$
NOTE: THESE ARE AUTOMATED STATIONS WITH LIMITED QUALITY CONTROL
      "FAIR" INDICATES FEW OR NO CLOUDS BELOW 12,000 FEET WITH NO
      SIGNIFICANT WEATHER AND/OR OBSTRUCTIONS TO VISIBILITY.
      SKY/WX - SKY CONDITION AND SIGNIFICANT WEATHER.
      TMP - AIR TEMPERATURE.    DP   - DEWPOINT TEMPERATURE.
      RH  - RELATIVE HUMIDITY.  PRES - PRESSURE.
      HX  - HEAT INDEX.         WCI  - WIND CHILL INDEX.
$




USA.gov is the U.S. government's official web portal to all federal, state and local government web resources and services.